Terminal Aerodrome Forecast
Issued by NWS

Home | Current Version | Previous Version | Text Only | Print | Product List | Glossary Off
Versions: 1 2 3 4 5 6 7 8 9 10 11 12 13 14 15 16 17 18 19 20 21 22 23 24 25 26 27

000
FTUS45 KGGW 231100
TAFGDV
TAF
KGDV 231134Z 2312/2412 VRB05KT P6SM SCT150
     FM231600 14015G22KT P6SM SCT250
     FM240200 12011KT P6SM BKN250
      AMD LTD TO CLD VIS AND WIND=

USA.gov is the U.S. government's official web portal to all federal, state and local government web resources and services.